星链-3233 (STARLINK-3233 )

导读 | 星芒AI

STARLINK-3233 是 SpaceX Starlink 项目中的一颗低轨通信卫星,属于第三代 Starlink 卫星(也称为 v1.5 或 Block V)。它于 2023 年发射,旨在为全球用户提供高速互联网服务。该卫星采用先进的推进系统和激光通信技术,提升网络效率与稳定性。作为 Starlink 卫星群的一部分,STARLINK-3233 运行在约 550 公里的轨道高度,支持 SpaceX 打造全球宽带网络的目标。

基本信息
目录编号:
49746
目录名称:
STARLINK-3233
国际标识:
2021-115Y
轨道中心:
EARTH
卫星名称:
星链-3233
卫星全名:
星链-3233 (STARLINK-3233 )
卫星状态:
在轨 (已飞行1479 天)
发射日期:
2021-12-02 UTC
国别 :
美国 (US)
星等 :
--
轨道信息
数据来源 国际轨道数据
星历时间: 2025-12-20T11:46:58+0800
5小时前
查看轨道信息
半长轴: 6917.925km
偏心率: 0.0001589
轨道倾角: 53.217°
近地点辐角 71.879°
升交点赤经 146.152°
平近点角 288.238°
近地点: 538.688km
远地点: 540.888km
周期: 95.438分钟
每日圈数: 15.088257
详细信息
固有亮度:
5
最大亮度:
2.5
卫星平台:
Starlink v1.5
覆盖范围:
全球
运营商:
太空探索技术公司
运营商所在国:
美国
制造商(研发单位):
太空探索技术公司
制造商所在国:
美国
使用方式:
暂无
卫星简介
星链(Starlink)计划是由太空探索技术公司(SpaceX)提出的一个巨型低轨卫星互联网星座项目,计划在2019年至2024年间在太空搭建由约1.2万颗卫星组成的“星链”网络,其中1584颗将部署在地球上空550千米处的近地轨道,并从2020年开始工作。该卫星仍在工作。
2D轨道图
3D轨道图
轨道高度分析图
轨道倾角分析图
轨道综合分析图
查看轨道综合分析图